Miscellaneous Local Product
Issued by NWS Hastings, NE

Current Version | Previous Version | Text Only | Print | Product List | Glossary On
Versions: 1 2 3 4 5 6 7 8 9 10 11 12 13 14 15 16 17 18 19 20 21 22 23 24 25 26 27 28 29 30 31 32 33 34 35 36 37 38 39 40 41 42 43 44 45 46 47 48 49 50
000
AXUS43 KGID 181902
MISGRI

GID CWA HOURLY WEATHER ROUNDUP
NATIONAL WEATHER SERVICE HASTINGS NE
100 PM CST MON DEC 18 2017

NOTE: "FAIR" INDICATES FEW OR NO CLOUDS BELOW 12,000 FEET WITH NO
SIGNIFICANT WEATHER AND/OR OBSTRUCTIONS TO VISIBILITY.

...SOUTH CENTRAL NEBRASKA...

CITY           SKY/WX    TMP DP  RH WIND       PRES   REMARKS
GRAND ISLAND   SUNNY     52  29  41 SW17G25   29.90F
KEARNEY        SUNNY     51  26  37 SW21      29.91F
HASTINGS       SUNNY     53  25  33 SW13G22   29.92F
ORD            SUNNY     53  26  35 SW20G29   29.84F
YORK           SUNNY     54  27  35 SW18      29.90F
AURORA         SUNNY     52  28  39 W18       29.90F
LEXINGTON      SUNNY     53  27  37 SW13      29.91F
HOLDREGE       SUNNY     48  31  51 SW12      29.92F
HEBRON         SUNNY     52  30  42 SW8G16    29.95F

...NEBRASKA PANHANDLE...

CITY           SKY/WX    TMP DP  RH WIND       PRES   REMARKS
CHADRON        CLOUDY    46  25  43 VRB3      29.81F
ALLIANCE       CLOUDY    51  24  34 W29G38    29.83F
SCOTTSBLUFF    CLOUDY    53  25  33 W29G43    29.88F
SIDNEY         CLOUDY    54  18  24 W15       29.91F

...WESTERN AND NORTH CENTRAL NEBRASKA...

CITY           SKY/WX    TMP DP  RH WIND       PRES   REMARKS
VALENTINE      CLOUDY    56  24  29 W25       29.77F
AINSWORTH      CLOUDY    51  26  37 W20       29.80S
ONEILL         SUNNY     53  27  37 SW14      29.80F
BROKEN BOW     SUNNY     52  26  36 SW23G30   29.86F
IMPERIAL       SUNNY     55  23  28 SW17      29.91F
NORTH PLATTE   SUNNY     53  25  33 SW15      29.89F
MCCOOK         SUNNY     51  31  46 SW9       29.93F

...EASTERN NEBRASKA...

CITY           SKY/WX    TMP DP  RH WIND       PRES   REMARKS
NORFOLK        SUNNY     51  25  36 SW15      29.82F
SO SIOUX CITY  SUNNY     49  29  46 SW12      29.83F
TEKAMAH        SUNNY     51  27  39 SW18G24   29.86F
COLUMBUS       SUNNY     52  24  33 SW16      29.87F
ALBION         SUNNY     52  26  37 W16G22    29.84F
OMAHA EPPLEY   MOSUNNY   50  26  39 SW8       29.90F
OFFUTT AFB     SUNNY     49  28  43 SW8       29.90F
MILLARD        SUNNY     51  29  44 W13       29.90F
LINCOLN        SUNNY     53  26  35 SW13      29.92F
NEBRASKA CITY  SUNNY     46  34  62 SW13      29.93F
BEATRICE       SUNNY     48  34  57 SW10      29.95F
FALLS CITY     SUNNY     51  33  50 SW10      29.95F

...NORTHERN KANSAS...

CITY           SKY/WX    TMP DP  RH WIND       PRES   REMARKS
GOODLAND       SUNNY     54  27  35 SW13      29.94F
HILL CITY      SUNNY     52  33  48 SW12      29.96F
NORTON         CLEAR     55  23  28 S14       29.93F
PHILLIPSBURG   SUNNY     55  28  35 SW10      29.96F
SMITH CENTER   MOSUNNY   50  30  46 SW7       29.96F
HAYS           SUNNY     53  30  41 SW13      29.99F
RUSSELL        SUNNY     52  33  48 SW12      29.99F
CONCORDIA      SUNNY     49  31  49 W12       29.98F
SALINA         SUNNY     57  34  41 SW16      30.02F
TOPEKA         SUNNY     54  35  48 W13       30.02F



USA.gov is the U.S. government's official web portal to all federal, state and local government web resources and services.